London, United Kingdom

12:34 AM BST on 三月 29, 2017 (GMT +0100)
Heathrow Airport

天気 に付いての歴史 EGLL - 三月, 2017

Change the Weather History Date:

月曜日, 三月 20, 2017

  Actual Average Record
Temperature  
平均温度 50 °F -  
最高温度 55 °F 54 °F 59 °F (2003)
最低温度 44 °F 40 °F 33 °F (2003)
Degree Days  
暖房度日 16    
Moisture  
露点温度 47 °F    
Average Humidity 85    
Maximum Humidity 96    
Minimum Humidity 67    
降水確率  
降水確率 0.04 インチ - - ()
海面圧  
海面圧 29.66 インチ    
 
風速 14 Mph ()    
最大風速 24 Mph    
Max Gust Speed 33 Mph    
視程 6.9 マイル    
イベント    
Averages and records for this station are not official NWS values.
T = Trace of Precipitation, MM = Missing Value Source: Averaged Metar Reports

Daily Weather History Graph

Daily Weather History Graph

Search for Another Location

Airport or City:

Trip Planner

Search our weather history database for the weather conditions in past years. The results will help you decide how hot, cold, wet, or windy it might be!

Date:

天文

Mar. 20, 2017 入り
実時間 6:04 AM GMT 6:15 PM GMT
常用薄明 5:31 AM GMT 6:48 PM GMT
航海薄明 4:51 AM GMT 7:27 PM GMT
天文薄明 4:10 AM GMT 8:09 PM GMT
1:19 AM GMT (3/20) 10:16 AM GMT (3/20)
可視光の長さ 13h 17m
可照時間
12h 10m
十八夜, 52% of the Moon is Illuminated
3月 20
十八夜
3月 20
第 4 四半期
3月 28
新しい
4月 3
上弦
4月 11
満月

Hourly Weather History & Observations

時間 (GMT) 温度 体感気温(寒さ) 露点温度 湿度 気圧 視程 Wind Dir 風速 突風の速度 Precip イベント 現在の気象状況
12:00 AM 53 °F - 49 °F 81% 29.77 インチ 13 マイル 南西 16.1 Mph - -   だいたい曇
12:20 AM 53.6 °F - 50.0 °F 88% 29.74 インチ 6.2 マイル 南西 15.0 Mph - N/A  
12:50 AM 53.6 °F - 50.0 °F 88% 29.74 インチ 6.2 マイル 西南西 13.8 Mph - N/A 小雨
1:00 AM 53 °F - 49 °F 84% 29.75 インチ 10 マイル 南西 16.1 Mph - - にわか雨(弱)
1:20 AM 53.6 °F - 50.0 °F 88% 29.74 インチ 6.2 マイル 西南西 15.0 Mph - N/A 小雨
1:50 AM 53.6 °F - 50.0 °F 88% 29.74 インチ 6.2 マイル 南西 12.7 Mph - N/A 小雨
2:20 AM 51.8 °F - 50.0 °F 94% 29.71 インチ 6.2 マイル 南西 12.7 Mph - N/A 小雨
2:50 AM 51.8 °F - 50.0 °F 94% 29.71 インチ 3.1 マイル 南西 12.7 Mph - N/A   煙霧
3:00 AM 52 °F - 50 °F 90% 29.72 インチ 3 マイル 南南西 15.0 Mph - -
3:20 AM 51.8 °F - 50.0 °F 94% 29.71 インチ 2.8 マイル 南西 12.7 Mph - N/A
3:50 AM 51.8 °F - 50.0 °F 94% 29.71 インチ 4.3 マイル 南西 11.5 Mph - N/A 小雨
4:00 AM 51 °F - 50 °F 96% 29.71 インチ 3 マイル 南南西 12.7 Mph - - 霧雨
4:20 AM 51.8 °F - 50.0 °F 94% 29.68 インチ 6.2 マイル 南南西 12.7 Mph - N/A   だいたい曇
4:50 AM 51.8 °F - 50.0 °F 94% 29.68 インチ 6.2 マイル 南西 13.8 Mph - N/A   だいたい曇
5:00 AM 51 °F - 50 °F 95% 29.69 インチ 17 マイル 南南西 15.0 Mph - - 霧雨
5:20 AM 51.8 °F - 50.0 °F 94% 29.68 インチ 6.2 マイル 南南西 13.8 Mph - N/A   だいたい曇
5:50 AM 51.8 °F - 50.0 °F 94% 29.68 インチ 6.2 マイル 南西 13.8 Mph - N/A   だいたい曇
6:00 AM 52 °F - 50 °F 91% 29.69 インチ 22 マイル 南西 12.7 Mph - -  
6:20 AM 51.8 °F - 50.0 °F 94% 29.68 インチ 6.2 マイル 南西 12.7 Mph - N/A   だいたい曇
6:50 AM 51.8 °F - 50.0 °F 94% 29.68 インチ 3.7 マイル 南西 13.8 Mph 26.5 Mph N/A 小雨
7:00 AM 52 °F - 51 °F 93% 29.68 インチ 4 マイル 南南西 15.0 Mph - -   もや(軽度)
7:20 AM 51.8 °F - 50.0 °F 94% 29.65 インチ 3.1 マイル 南西 12.7 Mph - N/A 小雨
7:50 AM 51.8 °F - 50.0 °F 94% 29.65 インチ 6.2 マイル 南西 12.7 Mph - N/A   だいたい曇
8:00 AM 53 °F - 51 °F 88% 29.66 インチ 12 マイル 南南西 13.8 Mph - -
8:20 AM 53.6 °F - 50.0 °F 88% 29.65 インチ 6.2 マイル 南西 13.8 Mph 27.6 Mph N/A   だいたい曇
8:50 AM 53.6 °F - 50.0 °F 88% 29.65 インチ 6.2 マイル 南西 15.0 Mph - N/A   だいたい曇
9:00 AM 53 °F - 51 °F 88% 29.65 インチ 22 マイル 南南西 15.0 Mph - -   だいたい曇
9:20 AM 53.6 °F - 50.0 °F 88% 29.62 インチ 6.2 マイル 南西 16.1 Mph - N/A   だいたい曇
9:50 AM 53.6 °F - 50.0 °F 88% 29.62 インチ 6.2 マイル 南西 16.1 Mph 27.6 Mph N/A   だいたい曇
10:00 AM 54 °F - 50 °F 83% 29.64 インチ 22 マイル 南南西 15.0 Mph - -   だいたい曇
10:20 AM 53.6 °F - 50.0 °F 88% 29.62 インチ 6.2 マイル 南西 17.3 Mph - N/A   だいたい曇
10:50 AM 53.6 °F - 51.8 °F 94% 29.62 インチ 5.0 マイル 南西 19.6 Mph - N/A 小雨
11:00 AM 53 °F - 51 °F 92% 29.63 インチ 2 マイル 南西 19.6 Mph - - 霧雨(弱)
11:20 AM 53.6 °F - 50.0 °F 88% 29.62 インチ 6.2 マイル 南西 18.4 Mph - N/A   だいたい曇
11:50 AM 53.6 °F - 50.0 °F 88% 29.59 インチ 6.2 マイル 南西 20.7 Mph - N/A   だいたい曇
12:00 PM 54 °F - 48 °F 75% 29.61 インチ 16 マイル 南南西 24.2 Mph - - 霧雨
12:20 PM 55.4 °F - 48.2 °F 77% 29.59 インチ 6.2 マイル 南西 19.6 Mph - N/A   だいたい曇
12:50 PM 53.6 °F - 48.2 °F 82% 29.59 インチ 6.2 マイル 南西 20.7 Mph - N/A   だいたい曇
1:00 PM 54 °F - 47 °F 70% 29.61 インチ 16 マイル 南西 18.4 Mph - -   だいたい曇
1:20 PM 51.8 °F - 48.2 °F 88% 29.59 インチ 6.2 マイル 南西 19.6 Mph - N/A   だいたい曇
1:50 PM 53.6 °F - 48.2 °F 82% 29.59 インチ 6.2 マイル 南西 21.9 Mph 33.4 Mph N/A 小雨
2:00 PM 53 °F - 49 °F 80% 29.59 インチ 3 マイル 南西 20.7 Mph - - 小雨
2:20 PM 51.8 °F - 50.0 °F 94% 29.59 インチ 4.3 マイル 南西 20.7 Mph - N/A 小雨
2:50 PM 51.8 °F - 50.0 °F 94% 29.59 インチ 6.2 マイル 西南西 17.3 Mph - N/A 小雨
3:00 PM 52 °F - 49 °F 87% 29.60 インチ 3 マイル 西南西 17.3 Mph - -
3:20 PM 51.8 °F - 48.2 °F 88% 29.59 インチ 6.2 マイル 西 16.1 Mph - N/A   やや曇
3:50 PM 53.6 °F - 48.2 °F 82% 29.59 インチ 6.2 マイル 西南西 19.6 Mph - N/A   やや曇
4:00 PM 53 °F - 49 °F 80% 29.61 インチ 25 マイル 西 17.3 Mph - -
4:20 PM 51.8 °F - 46.4 °F 82% 29.62 インチ 6.2 マイル 西南西 19.6 Mph - N/A   だいたい曇
4:50 PM 51.8 °F - 44.6 °F 76% 29.62 インチ 6.2 マイル 西 17.3 Mph - N/A   だいたい曇
5:00 PM 51 °F - 45 °F 73% 29.63 インチ 17 マイル 西 17.3 Mph - -   だいたい曇
5:20 PM 51.8 °F - 44.6 °F 76% 29.62 インチ 6.2 マイル 西 17.3 Mph - N/A   だいたい曇
5:50 PM 50.0 °F - 44.6 °F 82% 29.62 インチ 6.2 マイル 西 11.5 Mph - N/A   だいたい曇
6:00 PM 49 °F - 43 °F 74% 29.64 インチ 31 マイル 西 12.7 Mph - -
6:20 PM 50.0 °F - 44.6 °F 82% 29.65 インチ 6.2 マイル 西 11.5 Mph - N/A   所により曇
6:50 PM 50.0 °F - 42.8 °F 76% 29.65 インチ 6.2 マイル 西南西 16.1 Mph - N/A   所により曇
7:00 PM 49 °F - 42 °F 69% 29.66 インチ 31 マイル 西南西 16.1 Mph - -   やや曇
7:20 PM 48.2 °F - 42.8 °F 82% 29.65 インチ 6.2 マイル 西南西 15.0 Mph - N/A   情報なし
7:50 PM 48.2 °F - 41.0 °F 76% 29.68 インチ 6.2 マイル 西 15.0 Mph - N/A   情報なし
8:00 PM 47 °F - 41 °F 72% 29.68 インチ 31 マイル 西 16.1 Mph - -  
8:20 PM 48.2 °F - 41.0 °F 76% 29.68 インチ 6.2 マイル 西 15.0 Mph - N/A   情報なし
8:50 PM 48.2 °F - 39.2 °F 71% 29.68 インチ 6.2 マイル 西 13.8 Mph - N/A   情報なし
9:00 PM 47 °F - 39 °F 67% 29.69 インチ 31 マイル 西 13.8 Mph - -  
9:20 PM 46.4 °F 40.1 °F 39.2 °F 76% 29.68 インチ 6.2 マイル 西 15.0 Mph - N/A   情報なし
9:50 PM 46.4 °F 40.4 °F 39.2 °F 76% 29.68 インチ 6.2 マイル 西南西 13.8 Mph - N/A   所により曇
10:00 PM 45 °F - 40 °F 75% 29.70 インチ 19 マイル 西 12.7 Mph - -  
10:20 PM 44.6 °F 39.2 °F 39.2 °F 81% 29.71 インチ 6.2 マイル 西南西 10.4 Mph - N/A   所により曇
10:50 PM 44.6 °F 40.2 °F 41.0 °F 87% 29.71 インチ 6.2 マイル 南西 8.1 Mph - N/A   情報なし
11:00 PM 44 °F - 39 °F 78% 29.71 インチ 19 マイル 南西 6.9 Mph - -   やや曇
11:20 PM 44.6 °F 40.2 °F 39.2 °F 81% 29.71 インチ 6.2 マイル 南西 8.1 Mph - N/A   情報なし
11:50 PM 44.6 °F 39.2 °F 41.0 °F 87% 29.71 インチ 6.2 マイル 南西 10.4 Mph - N/A   情報なし